Location: Falkner
(32.6954°N, 86.0502°W)
Time: 14:51:34
(UTC+00:00)

Daily predictions for brighter satellites

Satellite Brightness Start Highest point End
(mag) Time Altitude Azimuth Time Altitude Azimuth Time Altitude Azimuth
Cosmos 2219 3.8 23:14:54 10° N 23:20:11 36° ENE 23:25:25 10° SE
Cosmos 1939 Rocket 4.0 23:18:15 10° SE 23:21:22 23° ENE 23:24:28 10° NNE
Cosmos 1656 3.8 23:17:18 10° SSW 23:22:49 85° WNW 23:28:28 10° NNE
Cosmos 1892 4.0 23:20:47 10° NNE 23:23:41 20° ENE 23:26:34 10° SE
Cosmos 1300 3.7 23:22:49 10° SSW 23:26:30 51° W 23:30:14 10° N
Cosmos 968 Rocket 4.4 23:22:48 10° N 23:27:03 25° ENE 23:31:16 10° ESE
Aureole 3 Rocket 2.9 23:23:41 10° S 23:27:18 70° E 23:32:14 10° N
NOAA 12 4.2 23:22:31 10° SSE 23:27:48 89° WSW 23:33:08 10° NNW
OAO 3 Rocket 3.5 23:23:53 10° WNW 23:28:41 66° SSW 23:33:23 10° ESE
NOSS 3-3 (A) 3.8 23:23:13 10° SSW 23:28:49 77° ESE 23:35:00 10° NNE
NOSS 3-3 (C) 3.8 23:23:21 10° SSW 23:28:56 76° ESE 23:35:06 10° NNE
CZ-4B R/B 1.9 23:26:46 10° N 23:29:51 56° WNW 23:32:52 10° SSW
SAR-Lupe-4 3.5 23:27:00 10° NNE 23:30:35 70° ESE 23:34:08 10° S
Cosmos 1400 Rocket 3.0 23:26:42 10° S 23:30:48 81° W 23:34:54 10° N
CZ-4B R/B 3.7 23:26:57 10° S 23:32:32 69° WSW 23:38:03 10° NNW
Cosmos 2369 3.9 23:30:11 10° S 23:35:40 51° ESE 23:41:11 10° NNE
GPS 2-04 Rocket1 2.7 23:33:43 10° WSW 23:37:43 87° SSE 23:41:13 14° ENE
ERS-2 3.6 23:35:55 10° N 23:39:19 39° WNW 23:42:42 10° SW
Helios 1A Rocket 3.9 23:36:40 10° SE 23:40:02 25° ENE 23:43:23 10° NNE
COSMO-SKYMED 1 2.5 23:36:08 10° NNE 23:40:27 68° E 23:44:46 10° S
Delta 2 Rocket 4.2 23:36:56 10° WNW 23:41:57 70° SSW 23:47:27 10° ESE
OAO 2 Rocket 3.4 23:37:58 10° W 23:42:59 68° N 23:46:58 16° ENE
CZ-2D R/B 4.0 23:41:02 10° SE 23:44:21 29° ENE 23:47:41 10° NNE
YAOGAN 1 3.8 23:42:51 10° ESE 23:46:05 21° ENE 23:49:20 10° NNE
Cosmos 1244 Rocket 4.5 23:40:01 10° N 23:46:16 80° E 23:52:33 10° S
SAR-Lupe-1 4.4 23:44:51 10° N 23:48:23 68° WNW 23:51:53 10° SSW
Cosmos 1340 2.5 23:45:50 10° N 23:49:37 72° E 23:53:21 10° SSE
CZ-4 R/B 2.3 23:46:53 10° SE 23:50:05 25° ENE 23:53:16 10° NNE
Cosmos 2227 Rocket 2.4 23:45:23 10° N 23:50:53 50° ENE 23:56:20 10° SE
Cosmos 1812 Rocket 4.1 23:47:53 10° SSE 23:51:54 36° E 23:55:54 10° NNE
Okean O Rocket 3.3 23:49:58 10° SSW 23:54:00 37° W 23:58:03 10° NNW
